START_TIME,STEP,MOV.,M6,t_acc.,M7,t_acc.,M19,t_acc.,H36,t_acc.
1986-01-26 15:00:28.380 ,0,0,0.,12.0,0.,12.0,0.,12.0,0.,12.0
1986-01-26 15:00:40.380 ,0,0,0.,12.0,0.,12.0,0.,12.0,0.,12.0
1986-01-26 15:00:52.380 ,1,1,0.,12.0,0.,12.0,0.,12.0,0.,12.0
1986-01-26 15:01:04.380 ,1,1,0.,12.0,0.,12.0,0.,12.0,0.,12.0
1986-01-26 15:01:16.380 ,1,0,0.,12.0,0.,12.0,0.,12.0,0.,12.0
1986-01-26 15:01:28.380 ,1,0,0.,12.0,0.,12.0,0.,12.0,0.,12.0
1986-01-26 15:01:40.380 ,2,1,0.,12.0,0.,12.0,0.,12.0,0.,12.0
1986-01-26 15:01:52.380 ,2,1,0.,12.0,0.,12.0,0.,12.0,0.,12.0
1986-01-26 15:02:04.380 ,2,0,0.,12.0,0.,12.0,0.,12.0,0.,12.0
1986-01-26 15:02:16.380 ,2,0,0.,12.0,0.,12.0,0.,12.0,0.,12.0
1986-01-26 15:02:28.380 ,3,1,0.,12.0,0.,12.0,0.,12.0,0.,12.0
1986-01-26 15:02:40.380 ,3,1,0.,12.0,0.,12.0,0.,12.0,0.,12.0
1986-01-26 15:02:52.380 ,3,0,0.,12.0,0.,12.0,0.,12.0,0.,12.0
1986-01-26 15:03:04.380 ,3,0,0.,12.0,0.,12.0,0.,12.0,0.,12.0
1986-01-26 15:03:16.380 ,4,1,0.,12.0,0.,12.0,0.,12.0,0.,12.0
1986-01-26 15:03:28.380 ,4,1,0.,12.0,0.,12.0,0.,12.0,0.,12.0
1986-01-26 15:03:40.380 ,4,0,0.,12.0,0.,12.0,0.,12.0,0.,12.0
1986-01-26 15:03:52.380 ,4,0,0.,12.0,0.,12.0,0.,12.0,0.,12.0
1986-01-26 15:04:04.380 ,5,1,0.,12.0,0.,12.0,0.,12.0,0.,12.0
1986-01-26 15:04:16.380 ,5,1,0.,12.0,0.,12.0,0.,12.0,0.,12.0
1986-01-26 15:04:28.380 ,5,0,0.,12.0,0.,12.0,0.,12.0,0.,12.0
1986-01-26 15:04:40.380 ,5,0,0.,12.0,0.,12.0,0.,12.0,0.,12.0
1986-01-26 15:04:52.380 ,6,1,0.,12.0,0.,12.0,0.,12.0,0.,12.0
1986-01-26 15:05:04.380 ,6,1,0.,12.0,0.,12.0,0.,12.0,0.,12.0
1986-01-26 15:05:16.380 ,6,0,0.,12.0,0.,12.0,0.,12.0,0.,12.0
1986-01-26 15:05:28.380 ,6,0,0.,12.0,0.,12.0,0.,12.0,0.,12.0
1986-01-26 15:05:40.380 ,7,1,0.,12.0,0.,12.0,0.,12.0,0.,12.0
1986-01-26 15:05:52.380 ,7,1,0.,12.0,0.,12.0,0.,12.0,0.,12.0
1986-01-26 15:06:04.380 ,7,0,0.,12.0,0.,12.0,0.,12.0,0.,12.0
1986-01-26 15:06:16.380 ,7,0,0.,12.0,0.,12.0,0.,12.0,0.,12.0
1986-01-26 15:06:28.380 ,7,1,0.,12.0,0.,12.0,0.,12.0,0.,12.0
1986-01-26 15:06:40.380 ,7,1,0.,12.0,0.,12.0,0.,12.0,0.,12.0
1986-01-26 15:06:52.380 ,7,0,0.,12.0,0.,12.0,0.,12.0,0.,12.0
1986-01-26 15:07:04.380 ,7,0,0.,12.0,0.,12.0,0.,12.0,0.,12.0
1986-01-26 15:07:16.380 ,6,1,0.,12.0,0.,12.0,0.,12.0,0.,12.0
1986-01-26 15:07:28.380 ,6,1,0.,12.0,0.,12.0,0.,12.0,0.,12.0
1986-01-26 15:07:40.380 ,0,0,0.,12.0,0.,12.0,0.,12.0,0.,12.0
1986-01-26 15:07:52.380 ,0,0,,0,,0,,0,,0
1986-01-26 15:12:15.180 ,0,0,,0,,0,,0,,0
1986-01-26 15:12:27.180 ,0,0,0.,12.0,0.,12.0,0.,12.0,0.,12.0
1986-01-26 15:12:28.380 ,0,0,0.,12.0,0.,12.0,0.,12.0,0.,12.0
1986-01-26 15:12:40.380 ,0,0,0.,12.0,0.,12.0,0.,12.0,0.,12.0
1986-01-26 15:12:52.380 ,0,1,0.,12.0,0.,12.0,0.,12.0,0.,12.0
1986-01-26 15:13:04.380 ,0,1,0.,12.0,0.,12.0,0.,12.0,0.,12.0
1986-01-26 15:13:16.380 ,0,0,0.,12.0,0.,12.0,0.,12.0,0.,12.0
1986-01-26 15:13:28.380 ,0,0,0.,12.0,0.,12.0,0.,12.0,0.,12.0
1986-01-26 15:13:40.380 ,1,1,0.,12.0,0.,12.0,0.,12.0,0.,12.0
1986-01-26 15:13:52.380 ,1,1,0.,12.0,0.,12.0,0.,12.0,0.,12.0
1986-01-26 15:14:04.380 ,1,0,0.,12.0,0.,12.0,0.,12.0,0.,12.0
1986-01-26 15:14:16.380 ,1,0,0.,12.0,0.,12.0,0.,12.0,0.,12.0
1986-01-26 15:14:28.380 ,2,1,0.,12.0,0.,12.0,0.,12.0,0.,12.0
1986-01-26 15:14:40.380 ,2,1,0.,12.0,0.,12.0,0.,12.0,0.,12.0
1986-01-26 15:14:52.380 ,2,0,0.,12.0,0.,12.0,0.,12.0,0.,12.0
1986-01-26 15:15:04.380 ,2,0,0.,12.0,0.,12.0,0.,12.0,0.,12.0
1986-01-26 15:15:16.380 ,3,1,0.,12.0,0.,12.0,0.,12.0,0.,12.0
1986-01-26 15:15:28.380 ,3,1,0.,12.0,0.,12.0,0.,12.0,0.,12.0
1986-01-26 15:15:40.380 ,3,0,0.,12.0,0.,12.0,0.,12.0,0.,12.0
1986-01-26 15:15:52.380 ,3,0,0.,12.0,0.,12.0,0.,12.0,0.,12.0
1986-01-26 15:16:04.380 ,4,1,0.,12.0,0.,12.0,0.,12.0,0.,12.0
1986-01-26 15:16:16.380 ,4,1,0.,12.0,0.,12.0,0.,12.0,0.,12.0
1986-01-26 15:16:28.380 ,4,0,0.,12.0,0.,12.0,0.,12.0,0.,12.0
1986-01-26 15:16:40.380 ,4,0,0.,12.0,0.,12.0,0.,12.0,0.,12.0
1986-01-26 15:16:52.380 ,0,0,0.,12.0,0.,12.0,0.,12.0,0.,12.0
1986-01-26 15:17:04.380 ,0,0,,0,,0,,0,,0
1986-01-26 15:17:16.380 ,0,0,,0,,0,,0,,0
1986-01-26 15:17:28.380 ,0,0,,0,,0,,0,,0
1986-01-26 15:17:16.380 ,5,0,0.,12.0,0.,12.0,0.,12.0,0.,12.0
1986-01-26 15:17:28.380 ,5,0,0.,12.0,0.,12.0,0.,12.0,0.,12.0
1986-01-26 15:17:40.380 ,6,1,0.,12.0,0.,12.0,0.,12.0,0.,12.0
1986-01-26 15:17:52.380 ,6,1,0.,12.0,0.,12.0,0.,12.0,0.,12.0
1986-01-26 15:18:04.380 ,6,0,0.,12.0,0.,12.0,0.,12.0,0.,12.0
1986-01-26 15:18:16.380 ,6,0,0.,12.0,0.,12.0,0.,12.0,0.,12.0
1986-01-26 15:18:28.380 ,7,1,0.,12.0,0.,12.0,0.,12.0,0.,12.0
1986-01-26 15:18:40.380 ,7,1,0.,12.0,0.,12.0,0.,12.0,0.,12.0
1986-01-26 15:18:52.380 ,7,0,0.,12.0,0.,12.0,0.,12.0,0.,12.0
1986-01-26 15:19:04.380 ,7,0,0.,12.0,0.,12.0,0.,12.0,0.,12.0
1986-01-26 15:19:16.380 ,7,1,0.,12.0,0.,12.0,0.,12.0,0.,12.0
1986-01-26 15:19:28.380 ,7,1,0.,12.0,0.,12.0,0.,12.0,0.,12.0
1986-01-26 15:19:40.380 ,7,0,0.,12.0,0.,12.0,0.,12.0,0.,12.0
1986-01-26 15:19:52.380 ,7,0,0.,12.0,0.,12.0,0.,12.0,0.,12.0
1986-01-26 15:20:04.380 ,6,1,0.,12.0,0.,12.0,0.,12.0,0.,12.0
1986-01-26 15:20:16.380 ,6,1,0.,12.0,0.,12.0,0.,12.0,0.,12.0
1986-01-26 15:20:28.380 ,6,0,0.,12.0,0.,12.0,0.,12.0,0.,12.0
1986-01-26 15:20:40.380 ,6,0,0.,12.0,0.,12.0,0.,12.0,0.,12.0
1986-01-26 15:20:52.380 ,5,1,0.,12.0,0.,12.0,0.,12.0,0.,12.0
1986-01-26 15:21:04.380 ,5,1,0.,12.0,0.,12.0,0.,12.0,0.,12.0
1986-01-26 15:21:16.380 ,5,0,,0,,0,,0,,0
1986-01-26 15:21:28.380 ,5,0,0.,12.0,0.,12.0,0.,12.0,0.,12.0
1986-01-26 15:21:40.380 ,4,1,0.,12.0,0.,12.0,0.,12.0,0.,12.0
1986-01-26 15:21:52.380 ,4,1,0.,12.0,0.,12.0,0.,12.0,0.,12.0
1986-01-26 15:22:04.380 ,4,0,0.,12.0,0.,12.0,0.,12.0,0.,12.0
1986-01-26 15:22:16.380 ,4,0,0.,12.0,0.,12.0,0.,12.0,0.,12.0
1986-01-26 15:22:28.380 ,3,1,0.,12.0,0.,12.0,0.,12.0,0.,12.0
1986-01-26 15:22:40.380 ,3,1,0.,12.0,0.,12.0,0.,12.0,0.,12.0
1986-01-26 15:22:52.380 ,3,0,0.,12.0,0.,12.0,0.,12.0,0.,12.0
1986-01-26 15:23:04.380 ,3,0,0.,12.0,0.,12.0,0.,12.0,0.,12.0
1986-01-26 15:23:16.380 ,2,1,0.,12.0,0.,12.0,0.,12.0,0.,12.0
1986-01-26 15:23:28.380 ,2,1,0.,12.0,0.,12.0,0.,12.0,0.,12.0
1986-01-26 15:23:40.380 ,2,0,0.,12.0,0.,12.0,0.,12.0,0.,12.0
1986-01-26 15:23:52.380 ,2,0,0.,12.0,0.,12.0,0.,12.0,0.,12.0
1986-01-26 15:24:04.380 ,1,1,0.,12.0,0.,12.0,0.,12.0,0.,12.0
1986-01-26 15:24:16.380 ,1,1,0.,12.0,0.,12.0,0.,12.0,0.,12.0
1986-01-26 15:24:28.380 ,1,0,0.,12.0,0.,12.0,0.,12.0,0.,12.0
1986-01-26 15:24:40.380 ,1,0,0.,12.0,0.,12.0,0.,12.0,0.,12.0
1986-01-26 15:24:52.380 ,0,1,0.,12.0,0.,12.0,0.,12.0,0.,12.0
1986-01-26 15:25:04.380 ,0,1,0.,12.0,0.,12.0,0.,12.0,0.,12.0
1986-01-26 15:25:16.380 ,0,0,0.,12.0,0.,12.0,0.,12.0,0.,12.0
1986-01-26 15:25:28.380 ,0,0,0.,12.0,0.,12.0,0.,12.0,0.,12.0
1986-01-26 15:25:40.380 ,0,1,0.,12.0,0.,12.0,0.,12.0,0.,12.0
1986-01-26 15:25:52.380 ,0,1,0.,12.0,0.,12.0,0.,12.0,0.,12.0
1986-01-26 15:26:04.380 ,0,0,0.,12.0,0.,12.0,0.,12.0,0.,12.0
1986-01-26 15:26:16.380 ,0,0,0.,12.0,0.,12.0,0.,12.0,0.,12.0
1986-01-26 15:26:28.380 ,1,1,0.,12.0,0.,12.0,0.,12.0,0.,12.0
1986-01-26 15:26:40.380 ,1,1,0.,12.0,0.,12.0,0.,12.0,0.,12.0
1986-01-26 15:26:52.380 ,1,0,0.,12.0,0.,12.0,0.,12.0,0.,12.0
1986-01-26 15:27:04.380 ,1,0,0.,12.0,0.,12.0,0.,12.0,0.,12.0
1986-01-26 15:27:16.380 ,2,1,0.,12.0,0.,12.0,0.,12.0,0.,12.0
1986-01-26 15:27:28.380 ,2,1,0.,12.0,0.,12.0,0.,12.0,0.,12.0
1986-01-26 15:27:40.380 ,2,0,0.,12.0,0.,12.0,0.,12.0,0.,12.0
1986-01-26 15:27:52.380 ,2,0,0.,12.0,0.,12.0,0.,12.0,0.,12.0
1986-01-26 15:28:04.380 ,3,1,,0,,0,,0,,0
1986-01-26 15:28:16.380 ,3,1,0.,12.0,0.,12.0,0.,12.0,0.,12.0
1986-01-26 15:28:28.380 ,3,0,0.,12.0,0.,12.0,0.,12.0,0.,12.0
1986-01-26 15:28:40.380 ,3,0,0.,12.0,0.,12.0,0.,12.0,0.,12.0
1986-01-26 15:28:52.380 ,4,1,0.,12.0,0.,12.0,0.,12.0,0.,12.0
1986-01-26 15:29:04.380 ,4,1,0.,12.0,0.,12.0,0.,12.0,0.,12.0
1986-01-26 15:29:16.380 ,4,0,0.,12.0,0.,12.0,0.,12.0,0.,12.0
1986-01-26 15:29:28.380 ,4,0,0.,12.0,0.,12.0,0.,12.0,0.,12.0
1986-01-26 15:29:40.380 ,5,1,0.,12.0,0.,12.0,0.,12.0,0.,12.0
1986-01-26 15:29:52.380 ,5,1,0.,12.0,0.,12.0,0.,12.0,0.,12.0
1986-01-26 15:30:04.380 ,5,0,0.,12.0,0.,12.0,0.,12.0,0.,12.0
1986-01-26 15:30:16.380 ,5,0,0.,12.0,0.,12.0,0.,12.0,0.,12.0
1986-01-26 15:30:28.380 ,6,1,0.,12.0,0.,12.0,0.,12.0,0.,12.0
1986-01-26 15:30:40.380 ,6,1,0.,12.0,0.,12.0,0.,12.0,0.,12.0
1986-01-26 15:30:52.380 ,6,0,0.,12.0,0.,12.0,0.,12.0,0.,12.0
1986-01-26 15:31:04.380 ,6,0,0.,12.0,0.,12.0,0.,12.0,0.,12.0
1986-01-26 15:31:16.380 ,7,1,0.,12.0,0.,12.0,0.,12.0,0.,12.0
1986-01-26 15:31:28.380 ,7,1,0.,12.0,0.,12.0,0.,12.0,0.,12.0
1986-01-26 15:31:40.380 ,7,0,0.,12.0,0.,12.0,0.,12.0,0.,12.0
1986-01-26 15:31:52.380 ,7,0,0.,12.0,0.,12.0,0.,12.0,0.,12.0
1986-01-26 15:32:04.380 ,7,1,0.,12.0,0.,12.0,0.,12.0,0.,12.0
1986-01-26 15:32:16.380 ,7,1,0.,12.0,0.,12.0,0.,12.0,0.,12.0
1986-01-26 15:32:28.380 ,7,0,0.,12.0,0.,12.0,0.,12.0,0.,12.0
1986-01-26 15:32:40.380 ,7,0,0.,12.0,0.,12.0,0.,12.0,0.,12.0
1986-01-26 15:32:52.380 ,6,1,0.,12.0,0.,12.0,0.,12.0,0.,12.0
1986-01-26 15:33:04.380 ,6,1,0.,12.0,0.,12.0,0.,12.0,0.,12.0
1986-01-26 15:33:16.380 ,6,0,0.,12.0,0.,12.0,0.,12.0,0.,12.0
1986-01-26 15:33:28.380 ,6,0,0.,12.0,0.,12.0,0.,12.0,0.,12.0
1986-01-26 15:33:40.380 ,5,1,0.,12.0,0.,12.0,0.,12.0,0.,12.0
1986-01-26 15:33:52.380 ,5,1,0.,12.0,0.,12.0,0.,12.0,0.,12.0
1986-01-26 15:34:04.380 ,5,0,0.,12.0,0.,12.0,0.,12.0,0.,12.0
1986-01-26 15:34:16.380 ,5,0,0.,12.0,0.,12.0,0.,12.0,0.,12.0
1986-01-26 15:34:28.380 ,4,1,0.,12.0,0.,12.0,0.,12.0,0.,12.0
1986-01-26 15:34:40.380 ,4,1,0.,12.0,0.,12.0,0.,12.0,0.,12.0
1986-01-26 15:34:52.380 ,4,0,0.,12.0,0.,12.0,0.,12.0,0.,12.0
1986-01-26 15:35:04.380 ,4,0,0.,12.0,0.,12.0,0.,12.0,0.,12.0
1986-01-26 15:35:16.380 ,3,1,0.,12.0,0.,12.0,0.,12.0,0.,12.0
1986-01-26 15:35:28.380 ,3,1,0.,12.0,0.,12.0,0.,12.0,0.,12.0
1986-01-26 15:35:40.380 ,3,0,0.,12.0,0.,12.0,0.,12.0,0.,12.0
1986-01-26 15:35:52.380 ,3,0,0.,12.0,0.,12.0,0.,12.0,0.,12.0
1986-01-26 15:36:04.380 ,2,1,0.,12.0,0.,12.0,0.,12.0,0.,12.0
1986-01-26 15:36:16.380 ,2,1,0.,12.0,0.,12.0,0.,12.0,0.,12.0
1986-01-26 15:36:28.380 ,2,0,0.,12.0,0.,12.0,0.,12.0,0.,12.0
1986-01-26 15:36:40.380 ,2,0,0.,12.0,0.,12.0,0.,12.0,0.,12.0
1986-01-26 15:36:52.380 ,1,1,0.,12.0,0.,12.0,0.,12.0,0.,12.0
1986-01-26 15:37:04.380 ,1,1,0.,12.0,0.,12.0,0.,12.0,0.,12.0
1986-01-26 15:37:16.380 ,1,0,0.,12.0,0.,12.0,0.,12.0,0.,12.0
1986-01-26 15:37:28.380 ,1,0,0.,12.0,0.,12.0,0.,12.0,0.,12.0
1986-01-26 15:37:40.380 ,0,1,0.,12.0,0.,12.0,0.,12.0,0.,12.0
1986-01-26 15:37:52.380 ,0,1,0.,12.0,0.,12.0,0.,12.0,0.,12.0
1986-01-26 15:38:04.380 ,0,0,0.,12.0,0.,12.0,0.,12.0,0.,12.0
1986-01-26 15:38:16.380 ,0,0,0.,12.0,0.,12.0,0.,12.0,0.,12.0
1986-01-26 15:38:28.380 ,0,1,0.,12.0,0.,12.0,0.,12.0,0.,12.0
1986-01-26 15:38:40.380 ,0,1,0.,12.0,0.,12.0,0.,12.0,0.,12.0
1986-01-26 15:38:52.380 ,0,0,0.,12.0,0.,12.0,0.,12.0,0.,12.0
1986-01-26 15:39:04.380 ,0,0,0.,12.0,0.,12.0,0.,12.0,0.,12.0
1986-01-26 15:39:16.380 ,1,1,0.,12.0,0.,12.0,0.,12.0,0.,12.0
1986-01-26 15:39:28.380 ,1,1,0.,12.0,0.,12.0,0.,12.0,0.,12.0
1986-01-26 15:39:40.380 ,1,0,0.,12.0,0.,12.0,0.,12.0,0.,12.0
1986-01-26 15:39:52.380 ,1,0,0.,12.0,0.,12.0,0.,12.0,0.,12.0
1986-01-26 15:40:04.380 ,2,1,0.,12.0,0.,12.0,0.,12.0,0.,12.0
1986-01-26 15:40:16.380 ,2,1,0.,12.0,0.,12.0,0.,12.0,0.,12.0
1986-01-26 15:40:28.380 ,2,0,0.,12.0,0.,12.0,0.,12.0,0.,12.0
1986-01-26 15:40:40.380 ,2,0,0.,12.0,0.,12.0,0.,12.0,0.,12.0
1986-01-26 15:40:52.380 ,3,1,0.,12.0,0.,12.0,0.,12.0,0.,12.0
1986-01-26 15:41:04.380 ,3,1,0.,12.0,0.,12.0,0.,12.0,0.,12.0
1986-01-26 15:41:16.380 ,3,0,0.,12.0,0.,12.0,0.,12.0,0.,12.0
1986-01-26 15:41:28.380 ,3,0,0.,12.0,0.,12.0,0.,12.0,0.,12.0
1986-01-26 15:41:40.380 ,4,1,0.,12.0,0.,12.0,0.,12.0,0.,12.0
1986-01-26 15:41:52.380 ,4,1,0.,12.0,0.,12.0,0.,12.0,0.,12.0
1986-01-26 15:42:04.380 ,4,0,0.,12.0,0.,12.0,0.,12.0,0.,12.0
1986-01-26 15:42:16.380 ,4,0,0.,12.0,0.,12.0,0.,12.0,0.,12.0
1986-01-26 15:42:28.380 ,5,1,0.,12.0,0.,12.0,0.,12.0,0.,12.0
1986-01-26 15:42:40.380 ,5,1,0.,12.0,0.,12.0,0.,12.0,0.,12.0
1986-01-26 15:42:52.380 ,5,0,0.,12.0,0.,12.0,0.,12.0,0.,12.0
1986-01-26 15:43:04.380 ,5,0,0.,12.0,0.,12.0,0.,12.0,0.,12.0
1986-01-26 15:43:16.380 ,6,1,0.,12.0,0.,12.0,0.,12.0,0.,12.0
1986-01-26 15:43:28.380 ,6,1,0.,12.0,0.,12.0,0.,12.0,0.,12.0
1986-01-26 15:43:40.380 ,6,0,0.,12.0,0.,12.0,0.,12.0,0.,12.0
1986-01-26 15:43:52.380 ,6,0,0.,12.0,0.,12.0,0.,12.0,0.,12.0
1986-01-26 15:44:04.380 ,7,1,0.,12.0,0.,12.0,0.,12.0,0.,12.0
1986-01-26 15:44:16.380 ,7,1,0.,12.0,0.,12.0,0.,12.0,0.,12.0
1986-01-26 15:44:28.380 ,7,0,0.,12.0,0.,12.0,0.,12.0,0.,12.0
1986-01-26 15:44:40.380 ,7,0,0.,12.0,0.,12.0,0.,12.0,0.,12.0
1986-01-26 15:44:52.380 ,7,1,0.,12.0,0.,12.0,0.,12.0,0.,12.0
1986-01-26 15:45:04.380 ,7,1,0.,12.0,0.,12.0,0.,12.0,0.,12.0
1986-01-26 15:45:16.380 ,7,0,0.,12.0,0.,12.0,0.,12.0,0.,12.0
1986-01-26 15:45:28.380 ,7,0,0.,12.0,0.,12.0,0.,12.0,0.,12.0
1986-01-26 15:45:40.380 ,6,1,0.,12.0,0.,12.0,0.,12.0,0.,12.0
1986-01-26 15:45:52.380 ,6,1,0.,12.0,0.,12.0,0.,12.0,0.,12.0
1986-01-26 15:46:04.380 ,0,0,0.,12.0,0.,12.0,0.,12.0,0.,12.0
1986-01-26 15:46:16.380 ,0,0,0.,12.0,0.,12.0,0.,12.0,0.,12.0
1986-01-26 15:46:24.780 ,0,0,,0,,0,,0,,0
1986-01-26 15:46:36.780 ,0,0,,0,,0,,0,,0
1986-01-26 15:46:26.580 ,0,0,,0,,0,,0,,0
1986-01-26 15:46:38.580 ,0,0,,0,,0,,0,,0
1986-01-26 15:46:28.380 ,5,1,0.,12.0,0.,12.0,0.,12.0,0.,12.0
1986-01-26 15:46:40.380 ,5,1,0.,12.0,0.,12.0,0.,12.0,0.,12.0
1986-01-26 15:46:52.380 ,0,0,0.,12.0,0.,12.0,0.,12.0,0.,12.0
1986-01-26 15:47:04.380 ,0,0,,0,,0,,0,,0
1986-01-26 15:47:01.980 ,0,0,,0,,0,,0,,0
1986-01-26 15:47:13.980 ,0,0,0.,12.0,0.,12.0,0.,12.0,0.,12.0
1986-01-26 15:47:16.380 ,4,1,0.,12.0,0.,12.0,0.,12.0,0.,12.0
1986-01-26 15:47:28.380 ,4,1,0.,12.0,0.,12.0,0.,12.0,0.,12.0
1986-01-26 15:47:40.380 ,4,0,0.,12.0,0.,12.0,0.,12.0,0.,12.0
1986-01-26 15:47:52.380 ,4,0,0.,12.0,0.,12.0,0.,12.0,0.,12.0
1986-01-26 15:48:04.380 ,3,1,0.,12.0,0.,12.0,0.,12.0,0.,12.0
1986-01-26 15:48:16.380 ,3,1,0.,12.0,0.,12.0,0.,12.0,0.,12.0
1986-01-26 15:48:28.380 ,3,0,0.,12.0,0.,12.0,0.,12.0,0.,12.0
1986-01-26 15:48:40.380 ,3,0,0.,12.0,0.,12.0,0.,12.0,0.,12.0
1986-01-26 15:48:52.380 ,2,1,0.,12.0,0.,12.0,0.,12.0,0.,12.0
1986-01-26 15:49:04.380 ,2,1,0.,12.0,0.,12.0,0.,12.0,0.,12.0
1986-01-26 15:49:16.380 ,2,0,0.,12.0,0.,12.0,0.,12.0,0.,12.0
1986-01-26 15:49:28.380 ,2,0,0.,12.0,0.,12.0,0.,12.0,0.,12.0
1986-01-26 15:49:40.380 ,1,1,0.,12.0,0.,12.0,0.,12.0,0.,12.0
1986-01-26 15:49:52.380 ,1,1,0.,12.0,0.,12.0,0.,12.0,0.,12.0
1986-01-26 15:50:04.380 ,1,0,0.,12.0,0.,12.0,0.,12.0,0.,12.0
1986-01-26 15:50:16.380 ,1,0,0.,12.0,0.,12.0,0.,12.0,0.,12.0
1986-01-26 15:50:28.380 ,0,1,0.,12.0,0.,12.0,0.,12.0,0.,12.0
1986-01-26 15:50:40.380 ,0,1,0.,12.0,0.,12.0,0.,12.0,0.,12.0
1986-01-26 15:50:52.380 ,0,0,0.,12.0,0.,12.0,0.,12.0,0.,12.0
1986-01-26 15:51:04.380 ,0,0,0.,12.0,0.,12.0,0.,12.0,0.,12.0
1986-01-26 15:51:16.380 ,0,1,0.,12.0,0.,12.0,0.,12.0,0.,12.0
1986-01-26 15:51:28.380 ,0,1,0.,12.0,0.,12.0,0.,12.0,0.,12.0
1986-01-26 15:51:40.380 ,0,0,0.,12.0,0.,12.0,0.,12.0,0.,12.0
1986-01-26 15:51:52.380 ,0,0,0.,12.0,0.,12.0,0.,12.0,0.,12.0
1986-01-26 15:52:04.380 ,1,1,0.,12.0,0.,12.0,0.,12.0,0.,12.0
1986-01-26 15:52:16.380 ,1,1,0.,12.0,0.,12.0,0.,12.0,0.,12.0
1986-01-26 15:52:28.380 ,1,0,0.,12.0,0.,12.0,0.,12.0,0.,12.0
1986-01-26 15:52:40.380 ,1,0,0.,12.0,0.,12.0,0.,12.0,0.,12.0
1986-01-26 15:52:52.380 ,2,1,0.,12.0,0.,12.0,0.,12.0,0.,12.0
1986-01-26 15:53:04.380 ,2,1,0.,12.0,0.,12.0,0.,12.0,0.,12.0
1986-01-26 15:53:16.380 ,2,0,0.,12.0,0.,12.0,0.,12.0,0.,12.0
1986-01-26 15:53:28.380 ,2,0,0.,12.0,0.,12.0,0.,12.0,0.,12.0
1986-01-26 15:53:40.380 ,3,1,0.,12.0,0.,12.0,0.,12.0,0.,12.0
1986-01-26 15:53:52.380 ,3,1,0.,12.0,0.,12.0,0.,12.0,0.,12.0
1986-01-26 15:54:04.380 ,3,0,0.,12.0,0.,12.0,0.,12.0,0.,12.0
1986-01-26 15:54:16.380 ,3,0,0.,12.0,0.,12.0,0.,12.0,0.,12.0
1986-01-26 15:54:28.380 ,4,1,0.,12.0,0.,12.0,0.,12.0,0.,12.0
1986-01-26 15:54:40.380 ,4,1,0.,12.0,0.,12.0,0.,12.0,0.,12.0
1986-01-26 15:54:52.380 ,4,0,0.,12.0,0.,12.0,0.,12.0,0.,12.0
1986-01-26 15:55:04.380 ,4,0,0.,12.0,0.,12.0,0.,12.0,0.,12.0
1986-01-26 15:55:16.380 ,5,1,0.,12.0,0.,12.0,0.,12.0,0.,12.0
1986-01-26 15:55:28.380 ,5,1,0.,12.0,0.,12.0,0.,12.0,0.,12.0
1986-01-26 15:55:40.380 ,5,0,0.,12.0,0.,12.0,0.,12.0,0.,12.0
1986-01-26 15:55:52.380 ,5,0,0.,12.0,0.,12.0,0.,12.0,0.,12.0
1986-01-26 15:56:04.380 ,6,1,0.,12.0,0.,12.0,0.,12.0,0.,12.0
1986-01-26 15:56:16.380 ,6,1,0.,12.0,0.,12.0,0.,12.0,0.,12.0
1986-01-26 15:56:28.380 ,6,0,0.,12.0,0.,12.0,0.,12.0,0.,12.0
1986-01-26 15:56:40.380 ,6,0,0.,12.0,0.,12.0,0.,12.0,0.,12.0
1986-01-26 15:56:52.380 ,7,1,0.,12.0,0.,12.0,0.,12.0,0.,12.0
1986-01-26 15:57:04.380 ,7,1,0.,12.0,0.,12.0,0.,12.0,0.,12.0
1986-01-26 15:57:16.380 ,7,0,0.,12.0,0.,12.0,0.,12.0,0.,12.0
1986-01-26 15:57:28.380 ,7,0,0.,12.0,0.,12.0,0.,12.0,0.,12.0
1986-01-26 15:57:40.380 ,7,1,0.,12.0,0.,12.0,0.,12.0,0.,12.0
1986-01-26 15:57:52.380 ,7,1,0.,12.0,0.,12.0,0.,12.0,0.,12.0
1986-01-26 15:58:04.380 ,7,0,0.,12.0,0.,12.0,0.,12.0,0.,12.0
1986-01-26 15:58:16.380 ,7,0,0.,12.0,0.,12.0,0.,12.0,0.,12.0
1986-01-26 15:58:28.380 ,6,1,0.,12.0,0.,12.0,0.,12.0,0.,12.0
1986-01-26 15:58:40.380 ,6,1,0.,12.0,0.,12.0,0.,12.0,0.,12.0
1986-01-26 15:58:52.380 ,6,0,0.,12.0,0.,12.0,0.,12.0,0.,12.0
1986-01-26 15:59:04.380 ,6,0,0.,12.0,0.,12.0,0.,12.0,0.,12.0
1986-01-26 15:59:16.380 ,5,1,0.,12.0,0.,12.0,0.,12.0,0.,12.0
1986-01-26 15:59:28.380 ,5,1,0.,12.0,0.,12.0,0.,12.0,0.,12.0
1986-01-26 15:59:40.380 ,5,0,0.,12.0,0.,12.0,0.,12.0,0.,12.0
1986-01-26 15:59:52.380 ,5,0,0.,12.0,0.,12.0,0.,12.0,0.,12.0
1986-01-26 16:00:04.380 ,4,1,0.,12.0,0.,12.0,0.,12.0,0.,12.0
1986-01-26 16:00:16.380 ,4,1,0.,12.0,0.,12.0,0.,12.0,0.,12.0
1986-01-26 16:00:28.380 ,4,0,0.,12.0,0.,12.0,0.,12.0,0.,12.0
1986-01-26 16:00:40.380 ,4,0,0.,12.0,0.,12.0,0.,12.0,0.,12.0
1986-01-26 16:00:52.380 ,3,1,0.,12.0,0.,12.0,0.,12.0,0.,12.0
1986-01-26 16:01:04.380 ,3,1,0.,12.0,0.,12.0,0.,12.0,0.,12.0
1986-01-26 16:01:16.380 ,3,0,0.,12.0,0.,12.0,0.,12.0,0.,12.0
1986-01-26 16:01:28.380 ,3,0,0.,12.0,0.,12.0,0.,12.0,0.,12.0
1986-01-26 16:01:40.380 ,2,1,0.,12.0,0.,12.0,0.,12.0,0.,12.0
1986-01-26 16:01:52.380 ,2,1,0.,12.0,0.,12.0,0.,12.0,0.,12.0
1986-01-26 16:02:04.380 ,2,0,0.,12.0,0.,12.0,0.,12.0,0.,12.0
1986-01-26 16:02:16.380 ,2,0,0.,12.0,0.,12.0,0.,12.0,0.,12.0
1986-01-26 16:02:28.380 ,1,1,0.,12.0,0.,12.0,0.,12.0,0.,12.0
1986-01-26 16:02:40.380 ,1,1,0.,12.0,0.,12.0,0.,12.0,0.,12.0
1986-01-26 16:02:52.380 ,1,0,0.,12.0,0.,12.0,0.,12.0,0.,12.0
1986-01-26 16:03:04.380 ,1,0,0.,12.0,0.,12.0,0.,12.0,0.,12.0
1986-01-26 16:03:16.380 ,0,1,0.,12.0,0.,12.0,0.,12.0,0.,12.0
1986-01-26 16:03:28.380 ,0,1,0.,12.0,0.,12.0,0.,12.0,0.,12.0
1986-01-26 16:03:40.380 ,0,0,0.,12.0,0.,12.0,0.,12.0,0.,12.0
1986-01-26 16:03:52.380 ,0,0,0.,12.0,0.,12.0,0.,12.0,0.,12.0
1986-01-26 16:04:04.380 ,0,1,0.,12.0,0.,12.0,0.,12.0,0.,12.0
1986-01-26 16:04:16.380 ,0,1,0.,12.0,0.,12.0,0.,12.0,0.,12.0
1986-01-26 16:04:28.380 ,0,0,0.,12.0,0.,12.0,0.,12.0,0.,12.0
1986-01-26 16:04:40.380 ,0,0,0.,12.0,0.,12.0,0.,12.0,0.,12.0
1986-01-26 16:04:52.380 ,1,1,0.,12.0,0.,12.0,0.,12.0,0.,12.0
1986-01-26 16:05:04.380 ,1,1,0.,12.0,0.,12.0,0.,12.0,0.,12.0
1986-01-26 16:05:16.380 ,1,0,0.,12.0,0.,12.0,0.,12.0,0.,12.0
1986-01-26 16:05:28.380 ,1,0,0.,12.0,0.,12.0,0.,12.0,0.,12.0
1986-01-26 16:05:40.380 ,2,1,0.,12.0,0.,12.0,0.,12.0,0.,12.0
1986-01-26 16:05:52.380 ,2,1,0.,12.0,0.,12.0,0.,12.0,0.,12.0
1986-01-26 16:06:04.380 ,2,0,0.,12.0,0.,12.0,0.,12.0,0.,12.0
1986-01-26 16:06:16.380 ,2,0,0.,12.0,0.,12.0,0.,12.0,0.,12.0
1986-01-26 16:06:28.380 ,3,1,0.,12.0,0.,12.0,0.,12.0,0.,12.0
1986-01-26 16:06:40.380 ,3,1,0.,12.0,0.,12.0,0.,12.0,0.,12.0
1986-01-26 16:06:52.380 ,3,0,0.,12.0,0.,12.0,0.,12.0,0.,12.0
1986-01-26 16:07:04.380 ,3,0,0.,12.0,0.,12.0,0.,12.0,0.,12.0
1986-01-26 16:07:16.380 ,4,1,0.,12.0,0.,12.0,0.,12.0,0.,12.0
1986-01-26 16:07:28.380 ,4,1,0.,12.0,0.,12.0,0.,12.0,0.,12.0
1986-01-26 16:07:40.380 ,4,0,0.,12.0,0.,12.0,0.,12.0,0.,12.0
1986-01-26 16:07:52.380 ,4,0,0.,12.0,0.,12.0,0.,12.0,0.,12.0
1986-01-26 16:08:04.380 ,5,1,0.,12.0,0.,12.0,0.,12.0,0.,12.0
1986-01-26 16:08:16.380 ,5,1,0.,12.0,0.,12.0,0.,12.0,0.,12.0
1986-01-26 16:08:28.380 ,5,0,0.,12.0,0.,12.0,0.,12.0,0.,12.0
1986-01-26 16:08:40.380 ,5,0,0.,12.0,0.,12.0,0.,12.0,0.,12.0
1986-01-26 16:08:52.380 ,6,1,0.,12.0,0.,12.0,0.,12.0,0.,12.0
1986-01-26 16:09:04.380 ,6,1,0.,12.0,0.,12.0,0.,12.0,0.,12.0
1986-01-26 16:09:16.380 ,6,0,0.,12.0,0.,12.0,0.,12.0,0.,12.0
1986-01-26 16:09:28.380 ,6,0,0.,12.0,0.,12.0,0.,12.0,0.,12.0
1986-01-26 16:09:40.380 ,7,1,0.,12.0,0.,12.0,0.,12.0,0.,12.0
1986-01-26 16:09:52.380 ,7,1,0.,12.0,0.,12.0,0.,12.0,0.,12.0
1986-01-26 16:10:04.380 ,7,0,0.,12.0,0.,12.0,0.,12.0,0.,12.0
1986-01-26 16:10:16.380 ,7,0,0.,12.0,0.,12.0,0.,12.0,0.,12.0
1986-01-26 16:10:28.380 ,7,1,0.,12.0,0.,12.0,0.,12.0,0.,12.0
1986-01-26 16:10:40.380 ,7,1,0.,12.0,0.,12.0,0.,12.0,0.,12.0
1986-01-26 16:10:52.380 ,7,0,0.,12.0,0.,12.0,0.,12.0,0.,12.0
1986-01-26 16:11:04.380 ,7,0,0.,12.0,0.,12.0,0.,12.0,0.,12.0
1986-01-26 16:11:16.380 ,6,1,0.,12.0,0.,12.0,0.,12.0,0.,12.0
1986-01-26 16:11:28.380 ,6,1,0.,12.0,0.,12.0,0.,12.0,0.,12.0
1986-01-26 16:11:40.380 ,6,0,0.,12.0,0.,12.0,0.,12.0,0.,12.0
1986-01-26 16:11:52.380 ,6,0,0.,12.0,0.,12.0,0.,12.0,0.,12.0
1986-01-26 16:12:04.380 ,5,1,0.,12.0,0.,12.0,0.,12.0,0.,12.0
1986-01-26 16:12:16.380 ,5,1,0.,12.0,0.,12.0,0.,12.0,0.,12.0
1986-01-26 16:12:28.380 ,5,0,0.,12.0,0.,12.0,0.,12.0,0.,12.0
1986-01-26 16:12:40.380 ,5,0,0.,12.0,0.,12.0,0.,12.0,0.,12.0
1986-01-26 16:12:52.380 ,4,1,0.,12.0,0.,12.0,0.,12.0,0.,12.0
1986-01-26 16:13:04.380 ,4,1,0.,12.0,0.,12.0,0.,12.0,0.,12.0
1986-01-26 16:13:16.380 ,4,0,0.,12.0,0.,12.0,0.,12.0,0.,12.0
1986-01-26 16:13:28.380 ,4,0,0.,12.0,0.,12.0,0.,12.0,0.,12.0
1986-01-26 16:13:40.380 ,3,1,0.,12.0,0.,12.0,0.,12.0,0.,12.0
1986-01-26 16:13:52.380 ,3,1,0.,12.0,0.,12.0,0.,12.0,0.,12.0
1986-01-26 16:14:04.380 ,3,0,0.,12.0,0.,12.0,0.,12.0,0.,12.0
1986-01-26 16:14:16.380 ,3,0,0.,12.0,0.,12.0,0.,12.0,0.,12.0
1986-01-26 16:14:28.380 ,2,1,0.,12.0,0.,12.0,0.,12.0,0.,12.0
1986-01-26 16:14:40.380 ,2,1,0.,12.0,0.,12.0,0.,12.0,0.,12.0
1986-01-26 16:14:52.380 ,2,0,0.,12.0,0.,12.0,0.,12.0,0.,12.0
1986-01-26 16:15:04.380 ,2,0,0.,12.0,0.,12.0,0.,12.0,0.,12.0
1986-01-26 16:15:16.380 ,1,1,0.,12.0,0.,12.0,0.,12.0,0.,12.0
1986-01-26 16:15:28.380 ,1,1,0.,12.0,0.,12.0,0.,12.0,0.,12.0
1986-01-26 16:15:40.380 ,1,0,0.,12.0,0.,12.0,0.,12.0,0.,12.0
1986-01-26 16:15:52.380 ,1,0,0.,12.0,0.,12.0,0.,12.0,0.,12.0
1986-01-26 16:16:04.380 ,0,1,0.,12.0,0.,12.0,0.,12.0,0.,12.0
1986-01-26 16:16:16.380 ,0,1,0.,12.0,0.,12.0,0.,12.0,0.,12.0
1986-01-26 16:16:28.380 ,0,0,0.,12.0,0.,12.0,0.,12.0,0.,12.0
1986-01-26 16:16:40.380 ,0,0,0.,12.0,0.,12.0,0.,12.0,0.,12.0
1986-01-26 16:16:52.380 ,0,1,0.,12.0,0.,12.0,0.,12.0,0.,12.0
1986-01-26 16:17:04.380 ,0,1,0.,12.0,0.,12.0,0.,12.0,0.,12.0
1986-01-26 16:17:16.380 ,0,0,0.,12.0,0.,12.0,0.,12.0,0.,12.0
1986-01-26 16:17:28.380 ,0,0,0.,12.0,0.,12.0,0.,12.0,0.,12.0
1986-01-26 16:17:40.380 ,1,1,0.,12.0,0.,12.0,0.,12.0,0.,12.0
1986-01-26 16:17:52.380 ,1,1,0.,12.0,0.,12.0,0.,12.0,0.,12.0
1986-01-26 16:18:04.380 ,1,0,0.,12.0,0.,12.0,0.,12.0,0.,12.0
1986-01-26 16:18:16.380 ,1,0,0.,12.0,0.,12.0,0.,12.0,0.,12.0
1986-01-26 16:18:28.380 ,2,1,0.,12.0,0.,12.0,0.,12.0,0.,12.0
1986-01-26 16:18:40.380 ,2,1,0.,12.0,0.,12.0,0.,12.0,0.,12.0
1986-01-26 16:18:52.380 ,2,0,0.,12.0,0.,12.0,0.,12.0,0.,12.0
1986-01-26 16:19:04.380 ,2,0,0.,12.0,0.,12.0,0.,12.0,0.,12.0
1986-01-26 16:19:16.380 ,3,1,0.,12.0,0.,12.0,0.,12.0,0.,12.0
1986-01-26 16:19:28.380 ,3,1,0.,12.0,0.,12.0,0.,12.0,0.,12.0
1986-01-26 16:19:40.380 ,3,0,0.,12.0,0.,12.0,0.,12.0,0.,12.0
1986-01-26 16:19:52.380 ,3,0,0.,12.0,0.,12.0,0.,12.0,0.,12.0
1986-01-26 16:20:04.380 ,4,1,0.,12.0,0.,12.0,0.,12.0,0.,12.0
1986-01-26 16:20:16.380 ,4,1,0.,12.0,0.,12.0,0.,12.0,0.,12.0
1986-01-26 16:20:28.380 ,4,0,0.,12.0,0.,12.0,0.,12.0,0.,12.0
1986-01-26 16:20:40.380 ,4,0,0.,12.0,0.,12.0,0.,12.0,0.,12.0